{"data":{"norad_id":62923,"intl_designator":"2025-027S","name":"STARLINK-32905","alt_names":[],"object_type":"PAYLOAD","status":"ACTIVE","operator":null,"country":"US","launch_date":"2025-02-08","launch_site_code":"AFETR","launch_vehicle":null,"mission":null,"orbit_class":"UNKNOWN","rcs_meters":null,"size_class":null,"mass_kg":null,"dimensions":null,"purposes":["comms"],"wikipedia_slug":null,"has_3d_model":false,"image_url":null,"decayed_at":null,"tle_current":{"epoch":"2026-05-24T22:54:42.558336Z","epoch_age_seconds":89530,"freshness":"FRESH","line1":"1 62923U 25027S   26144.95465924  .00021826  00000+0  79988-3 0  9991","line2":"2 62923  43.0021  58.3694 0001342 230.3447 129.7287 15.27598251 73205","mean_motion":15.27598251,"eccentricity":0.0001342,"inclination_deg":43.0021,"raan_deg":58.3694,"arg_perigee_deg":230.3447,"mean_anomaly_deg":129.7287,"bstar":0.00079988,"rev_number":7320,"period_min":94.265622460444,"perigee_km":482.07368268388,"apogee_km":483.91521036412,"semimajor_km":6861.131446524,"source":"CELESTRAK","updated_at":"2026-05-25T13:38:19.822621Z"}}}